Location: Wellington
(41.3000°S, 174.7830°E)
Time: 02:21:49
(UTC+12:00)

Cosmos 2333 Rocket - Pass Details

Date: 24 January 2019
Orbit: 837 x 865 km, 70.8° (Epoch: 19 April)

Event Time Altitude Azimuth Distance (km) Brightness Sun altitude
Exits shadow 23:35:09 54° 49° (NE) 1,052 2.3 -23.6°
Maximum altitude 23:35:41 56° 71° (ENE) 1,030 2.3 -23.7°
Drops below altitude 10° 23:41:22 10° 148° (SSE) 2,533 5.0 -24.2°
Sets 23:43:53 0° 151° (SSE) 3,474 5.8 -24.4°
